Weather History for Evansville, IN

Change the Weather History Date:

Monday, February 18, 2013

  Actual Average Record
Temperature  
Mean Temperature 49 °F 37 °F  
Max Temperature 63 °F 47 °F 73 °F (1961)
Min Temperature 34 °F 28 °F -6 °F (1936)
Degree Days  
Heating Degree Days 16 28  
Month to date heating degree days 502 537  
Since 1 July heating degree days 3067 3316  
Cooling Degree Days 0 0  
Month to date cooling degree days 0 0  
Year to date cooling degree days 0 0  
Moisture  
Dew Point 35 °F    
Average Humidity 59    
Maximum Humidity 86    
Minimum Humidity 32    
Precipitation  
Precipitation 0.59 in 0.11 in 3.38 in (2000)
Month to date precipitation 1.42 2.07  
Year to date precipitation 8.19 5.17  
Snow  
Snow 0.00 in 0.20 in 2.20 in (1979)
Month to date snowfall 1.3 2.7  
Since 1 July snowfall 12.3 9.6  
Snow Depth 0.00 in    
Sea Level Pressure  
Sea Level Pressure 29.88 in    
Wind  
Wind Speed 14 mph (South)    
Max Wind Speed 33 mph    
Max Gust Speed 43 mph    
Visibility 9 miles    
Events Rain    
T = Trace of Precipitation, MM = Missing Value Source: NWS Daily Summary

Daily Weather History Graph

Daily Weather History Graph

Search for Another Location

Airport:

Trip Planner

Search our weather history database for the weather conditions in past years. The results will help you decide how hot, cold, wet, or windy it might be!

Date:

Astronomy

Feb. 18, 2013 Rise Set
Actual Time 6:36 AM CST 5:32 PM CST
Civil Twilight 6:09 AM CST 5:59 PM CST
Nautical Twilight 5:38 AM CST 6:29 PM CST
Astronomical Twilight 5:08 AM CST 7:00 PM CST
Moon 11:20 AM CST (2/18) 1:12 AM CST (2/18)
Length of Visible Light 11h 49m
Length of Day
10h 56m
First Quarter, 58% of the Moon is Illuminated
Feb 18
First Quarter
Feb 25
Full
Mar 4
Last Quarter
Mar 11
New
Mar 19
First Quarter

Hourly Weather History & Observations

Time (CST) Temp. Windchill Dew Point Humidity Pressure Visibility Wind Dir Wind Speed Gust Speed Precip Events Conditions
12:54 AM 34.0 °F 28.8 °F 19.0 °F 54% 30.11 in 10.0 mi ESE 5.8 mph - N/A   Clear
1:54 AM 35.1 °F 29.3 °F 19.9 °F 54% 30.08 in 10.0 mi SE 6.9 mph - N/A   Clear
2:54 AM 35.1 °F 28.6 °F 19.9 °F 54% 30.06 in 10.0 mi SE 8.1 mph - N/A   Clear
3:54 AM 34.0 °F 28.8 °F 21.0 °F 59% 30.05 in 10.0 mi SE 5.8 mph - N/A   Clear
4:54 AM 35.1 °F 32.2 °F 21.0 °F 57% 30.06 in 10.0 mi SE 3.5 mph - N/A   Clear
5:54 AM 35.1 °F 31.0 °F 21.9 °F 59% 30.05 in 10.0 mi SE 4.6 mph - N/A   Clear
6:54 AM 36.0 °F 30.3 °F 23.0 °F 59% 30.04 in 10.0 mi SSE 6.9 mph - N/A   Clear
7:54 AM 39.9 °F 33.9 °F 26.1 °F 58% 30.04 in 10.0 mi SSE 9.2 mph - N/A   Clear
8:54 AM 48.0 °F - 33.1 °F 56% 30.02 in 10.0 mi South 10.4 mph - N/A   Clear
9:54 AM 51.1 °F - 36.0 °F 56% 30.00 in 10.0 mi South 15.0 mph - N/A   Clear
10:54 AM 55.9 °F - 39.0 °F 53% 29.98 in 10.0 mi SSW 23.0 mph 32.2 mph N/A   Clear
11:54 AM 57.9 °F - 35.1 °F 42% 29.95 in 10.0 mi South 15.0 mph 25.3 mph N/A   Clear
12:54 PM 60.1 °F - 32.0 °F 35% 29.91 in 10.0 mi SSW 21.9 mph 32.2 mph N/A   Mostly Cloudy
1:54 PM 62.1 °F - 32.0 °F 32% 29.86 in 10.0 mi South 17.3 mph 28.8 mph N/A   Mostly Cloudy
2:54 PM 59.0 °F - 30.9 °F 35% 29.85 in 10.0 mi SSW 15.0 mph 24.2 mph N/A   Overcast
3:54 PM 57.0 °F - 36.0 °F 45% 29.82 in 10.0 mi South 21.9 mph 33.4 mph 0.00 in   Overcast
4:54 PM 52.0 °F - 41.0 °F 66% 29.82 in 9.0 mi South 26.5 mph 41.4 mph 0.00 in Rain Rain
5:54 PM 48.9 °F - 43.0 °F 80% 29.81 in 7.0 mi South 15.0 mph 21.9 mph 0.07 in Rain Rain
6:54 PM 48.9 °F - 44.1 °F 83% 29.76 in 10.0 mi SSE 9.2 mph - 0.16 in Rain Light Rain
7:54 PM 48.9 °F - 44.1 °F 83% 29.72 in 10.0 mi South 16.1 mph 24.2 mph 0.10 in Rain Light Rain
8:54 PM 48.9 °F - 44.1 °F 83% 29.72 in 10.0 mi South 20.7 mph 33.4 mph 0.08 in Rain Light Rain
9:04 PM 48.2 °F - 44.6 °F 87% 29.73 in 10.0 mi South 21.9 mph 35.7 mph 0.00 in Rain Light Rain
9:50 PM 50.0 °F - 44.6 °F 82% 29.70 in 10.0 mi South 21.9 mph 33.4 mph 0.03 in Rain Light Rain
9:54 PM 50.0 °F - 44.1 °F 80% 29.70 in 10.0 mi South 20.7 mph 33.4 mph 0.03 in Rain Light Rain
10:54 PM 48.0 °F - 44.1 °F 86% 29.73 in 7.0 mi SSW 11.5 mph 20.7 mph 0.04 in Rain Rain
11:09 PM 48.2 °F - 44.6 °F 87% 29.73 in 6.0 mi WSW 10.4 mph - 0.02 in Rain Rain
11:20 PM 48.2 °F - 44.6 °F 87% 29.76 in 5.0 mi West 16.1 mph 20.7 mph 0.04 in Rain Rain
11:31 PM 44.6 °F 36.4 °F 39.2 °F 81% 29.78 in 6.0 mi WNW 20.7 mph 29.9 mph N/A Rain Light Rain
11:51 PM 42.8 °F 33.5 °F 37.4 °F 81% 29.80 in 10.0 mi West 23.0 mph 29.9 mph 0.11 in Rain Light Rain
11:54 PM 43.0 °F 35.4 °F 37.9 °F 82% 29.80 in 10.0 mi WNW 16.1 mph 29.9 mph 0.11 in Rain Light Rain